weather.gov     
National Weather Service

Regional Weather Roundup
NWS Homepage
This page is being discontinued on March 12, 2014.
The same data is available at this site. Please update your bookmarks.
Thank you, and we apologize for the inconvenience.
Please send an email to SR-SRH.Webmaster@noaa.gov with any concerns.


Current Version
Previous Version:    01  02  03  04  05  06  07  08  09  10  11  12  13  14  15  16  17  18  19  20  21  22  23  24  25  26  
[Printable]
214
ASUS41 KPHI 211410
RWRPHI

REGIONAL WEATHER ROUNDUP
NATIONAL WEATHER SERVICE MOUNT HOLLY NJ
1000 AM EDT MON APR 21 2014

NOTE:  "FAIR" INDICATES FEW OR NO CLOUDS BELOW 12,000 FEET WITH NO
SIGNIFICANT WEATHER AND/OR OBSTRUCTIONS TO VISIBILITY.

 * = STATION DOES NOT REPORT PRECIPITATION (E.G. RAIN, SNOW, ETC.)
        OR FOG.

NJZ015>026-211500-
SOUTHERN NEW JERSEY

CITY           SKY/WX    TMP DP  RH WIND       PRES   REMARKS
POMONA         SUNNY     55  39  54 NE7       30.18F
RIO GRANDE*    SUNNY     54  39  58 NE10      30.18F
MILLVILLE      SUNNY     53  38  56 VRB3      30.18F
WRIGHTSTOWN    SUNNY     53  35  50 VRB2      30.16F
MOUNT HOLLY    SUNNY     51  32  48 CALM      30.18F
TRENTON        SUNNY     52  27  38 VRB3      30.18F

$$
NJZ001>014-211500-
NORTHERN NEW JERSEY

CITY           SKY/WX    TMP DP  RH WIND       PRES   REMARKS
SUSSEX         SUNNY     53  15  22 SW7       30.17F
ANDOVER*         N/A     51  18  27 VRB5      30.18F
MORRISTOWN     MOSUNNY   50  25  37 CALM      30.19F
NEWARK         PTSUNNY   51  25  36 CALM      30.19F
TETERBORO      SUNNY     53  27  36 VRB3      30.19F
CALDWELL       SUNNY     51  25  36 CALM      30.19F
SOMERVILLE     SUNNY     51  25  36 CALM      30.18F
ALLAIRE*       SUNNY     52  32  46 E5        30.18F
TOMS RIVER*    SUNNY     41  37  87 CALM      30.18F

$$
PAZ043-044-047-054-055-060>062-066>071-211500-
EASTERN PENNSYLVANIA

CITY           SKY/WX    TMP DP  RH WIND       PRES   REMARKS
PHILADELPHIA   MOSUNNY   52  30  43 SE6       30.20F
NORTH PHILA    SUNNY     53  28  38 E3        30.21F
BLUE BELL      SUNNY     54  30  40 CALM      30.18F
DOYLESTOWN     SUNNY     51  25  36 N3        30.17F
QUAKERTOWN*    SUNNY     50  21  32 CALM      30.19F
POTTSTOWN      SUNNY     50  26  39 CALM      30.20F
LANCASTER      SUNNY     49  21  33 NW3       30.19F
COATESVILLE    SUNNY     50  18  27 CALM      30.18F
READING        SUNNY     51  15  23 CALM      30.19F
ALLENTOWN      SUNNY     50  23  34 CALM      30.19F
MOUNT POCONO   SUNNY     51  20  29 W6        30.14F
HAZLETON       SUNNY     52  21  30 NW7       30.17F
WILKES BARRE   SUNNY     51  23  33 W7        30.15F

$$
DEZALL-MDZ008-012-015-019-020-211500-
DELAWARE AND EASTERN MARYLAND

CITY           SKY/WX    TMP DP  RH WIND       PRES   REMARKS
WILMINGTON     SUNNY     53  31  42 NE5       30.19F
DOVER          SUNNY     53  38  57 NE5       30.15F
GEORGETOWN     MOSUNNY   54  41  61 NE9       30.17F
EASTON         SUNNY     55  41  58 E5        30.21F
PATUXENT       PTSUNNY   52  39  61 NE8       30.17F
OCEAN CITY     SUNNY     53  41  63 NE10G20   30.16F
WALLOPS ISLAND MOSUNNY   55  46  71 E18       30.15F
CAMBRIDGE      SUNNY     55  41  58 E7        30.17F
SALISBURY      SUNNY     56  43  61 NE12      30.16F

$$
PAZ001-021-NYZ056-072-MDZ011-DCZ001-211500-
OTHER NEARBY LOCATIONS

CITY           SKY/WX    TMP DP  RH WIND       PRES   REMARKS
HARRISBURG     MOSUNNY   52  27  38 S3        30.18F
STATE COLLEGE  SUNNY     54  34  47 S7        30.14F
WILLIAMSPORT   SUNNY     53  31  42 E6        30.15F
BINGHAMTON     SUNNY     52  31  44 SW8       30.11F
NEW YORK CITY  SUNNY     53  30  41 VRB6      30.21F
BALTIMORE      MOSUNNY   52  26  36 NE3       30.18F
WASHINGTON DC  PTSUNNY   54  31  41 NE5       30.20F

$$




U.S. Dept. of Commerce
NOAA National Weather Service
1325 East West Highway
Silver Spring, MD 20910
E-mail: w-nws.webmaster@noaa.gov
Page last modified: May 16, 2007
NATIONAL WEATHER SERVICE: for Safety, for Work, for Fun - FOR LIFE